Skip Page Navigation
NASA JPL Caltech
NASA Logo - Jet Propulsion Laboratory + View the NASA Portal
+ Center for Near-Earth Object Studies
JPL Home Earth Solar System Stars & Galaxies Technology
JPL Solar System Dynamics
BODIES ORBITS EPHEMERIDES TOOLS PHYSICAL DATA DISCOVERY FAQ SITE MAP
IMPORTANT: The SSD Announcement email list is now available. Major changes are coming in the near future, including possible hostname and/or URL changes. To be notified of such changes, subscribe to this email list.

Please visit this page for more details.


JPL Small-Body Database Browser
Search: [ help ]  
277587 (2006 AV7)
Classification: Main-belt Asteroid          SPK-ID: 2277587
Ephemeris | Orbit Diagram | Orbital Elements | Mission Design | Physical Parameters | Discovery Circumstances | Close-Approach Data ]

[ show orbit diagram ]
Orbital Elements at Epoch 2458600.5 (2019-Apr-27.0) TDB
Reference: JPL 11 (heliocentric ecliptic J2000)
 Element Value Uncertainty (1-sigma)   Units 
e .2489466699044503 1.6881e-07  
a 2.680938851535265 2.7281e-08 au
q 2.013528052228099 4.5813e-07 au
i 14.82498843636145 1.0695e-05 deg
node 91.9560292623347 4.658e-05 deg
peri 33.90507697025259 7.2497e-05 deg
M 8.445853599740989 3.5634e-05 deg
tp 2458562.884240258498
(2019-Mar-20.38424026)
0.0001585 TDB
period 1603.351673933342
4.39
2.4473e-05
6.7e-08
d
yr
n .2245296561276841 3.4272e-09 deg/d
Q 3.348349650842431 3.4072e-08 au
  Orbit Determination Parameters
   # obs. used (total)      160  
   data-arc span      6200 days (16.97 yr)  
   first obs. used      2002-04-10  
   last obs. used      2019-04-01  
   planetary ephem.      DE431  
   SB-pert. ephem.      SB431-N16  
   condition code      0  
   norm. resid. RMS      .6791  
   source      ORB  
   producer      Otto Matic  
   solution date      2019-Jul-14 06:21:44  

Additional Information
 Earth MOID = 1.04587 au 
 Jupiter MOID = 1.83676 au 
 T_jup = 3.285 
[ show covariance matrix ]

Ephemeris | Orbit Diagram | Orbital Elements | Mission Design | Physical Parameters | Discovery Circumstances | Close-Approach Data ]

Physical Parameter Table
Parameter Symbol Value Units Sigma Reference Notes
absolute magnitude H 16.7   n/a MPO338856  
diameter diameter 1.792 km 0.397 urn:nasa:pds:neowise_diameters_albedos::2.0[mainbelt] (http://adsabs.harvard.edu/abs/2011ApJ...741...68M)  
geometric albedo albedo 0.115   0.058 urn:nasa:pds:neowise_diameters_albedos::2.0[mainbelt] (http://adsabs.harvard.edu/abs/2011ApJ...741...68M)  

277587 (2006 AV7)          Discovered 2006-Jan-06 by LINEAR at Socorro
Reference: 20110517/Numbers.arcLast Updated: 2011-05-20

[ show close-approach data ]
Ephemeris | Orbit Diagram | Orbital Elements | Mission Design | Physical Parameters | Discovery Circumstances | Close-Approach Data ]
ABOUT SSD CREDITS/AWARDS PRIVACY/COPYRIGHT GLOSSARY LINKS
FirstGov 2019-Dec-10 03:23 UT
(server date/time)  
NASA Home Page
Site Manager:   Ryan S. Park
Webmaster  Alan B. Chamberlin